This is the latest recevied weather packets stored in our database for station/object IW8PDD-3. If no packets are shown the sender has not sent any weather packets the latest 10 day(s).
| Time | Temp. | Humidity | Pressure | Rain* | Wind** | Luminosity | Snow |
|---|---|---|---|---|---|---|---|
| 1777977466 | 20.56° C | 60% | 1018.1 hPa | - | - | - | - |
| 1777976263 | 20.56° C | 59% | 1018 hPa | - | - | - | - |
| 1777975059 | 21.11° C | 58% | 1018.1 hPa | - | - | - | - |
| 1777973856 | 20.56° C | 58% | 1018.1 hPa | - | - | - | - |
| 1777972652 | 20.56° C | 57% | 1018.2 hPa | - | - | - | - |
| 1777971449 | 21.11° C | 57% | 1018.1 hPa | - | - | - | - |
| 1777970245 | 20° C | 58% | 1018.2 hPa | - | - | - | - |
| 1777969042 | 20.56° C | 58% | 1018.3 hPa | - | - | - | - |
| 1777967839 | 20° C | 58% | 1018.1 hPa | - | - | - | - |
| 1777966635 | 20° C | 59% | 1018 hPa | - | - | - | - |
| 1777965432 | 20° C | 61% | 1018.2 hPa | - | - | - | - |
| 1777964228 | 19.44° C | 63% | 1018.1 hPa | - | - | - | - |
| 1777963025 | 18.89° C | 63% | 1018.3 hPa | - | - | - | - |
| 1777961821 | 18.33° C | 63% | 1018.3 hPa | - | - | - | - |
| 1777960618 | 18.33° C | 63% | 1018.1 hPa | - | - | - | - |
| 1777959414 | 17.78° C | 63% | 1017.8 hPa | - | - | - | - |
| 1777958211 | 17.78° C | 62% | 1017.8 hPa | - | - | - | - |
| 1777955804 | 17.78° C | 59% | 1017.4 hPa | - | - | - | - |
| 1777947380 | 17.78° C | 56% | 1017.4 hPa | - | - | - | - |
| 1777946176 | 17.78° C | 57% | 1017.6 hPa | - | - | - | - |
| 1777943769 | 17.78° C | 56% | 1017.7 hPa | - | - | - | - |
| 1777942566 | 17.78° C | 55% | 1017.7 hPa | - | - | - | - |
| 1777941362 | 17.78° C | 54% | 1017.8 hPa | - | - | - | - |
| 1777940159 | 17.78° C | 54% | 1017.9 hPa | - | - | - | - |
| 1777938955 | 17.78° C | 53% | 1018.2 hPa | - | - | - | - |
* Rain since midnight (hover to see other rain measurements)
** Current wind speed in m/s (hover to see current wind gust speed)